Back to catalog

YUNYAO-1 27

AliveWeatherSSO
NORAD 65490·PAYLOAD·🇨🇳 China
This satellite name has not been confirmed by official sources yet.

Launched Sep 5, 2025 from Jiuquan Satellite Launch Center

Loading…

Next Passes (next 24 hours)

TLE

FreshSource: Space-Track

Epoch: Sep 14, 2026, 11:30 UTC

1 65490U 25197C   26257.47971591  .00003493  00000-0  14186-3 0  9995
2 65490  97.4110  83.5485 0015582  59.2012 301.0757 15.25141034 56922

Track YUNYAO-1 27 in real time with AllMySat

Download on the App Store